This is the latest recevied weather packets stored in our database for station/object NK2J. If no packets are shown the sender has not sent any weather packets the latest 10 day(s).
| Time | Temp. | Humidity | Pressure | Rain* | Wind** | Luminosity | Snow |
|---|---|---|---|---|---|---|---|
| 1777840885 | 32.78° C | 21% | 1011.3 hPa | 0 mm | - | 720 W/m² | - |
| 1777840581 | 33.33° C | 21% | 1011.5 hPa | 0 mm | - | 729 W/m² | - |
| 1777840279 | 32.78° C | 19% | 1011.5 hPa | 0 mm | - | 735 W/m² | - |
| 1777839976 | 33.33° C | 20% | 1011.4 hPa | 0 mm | - | 735 W/m² | - |
| 1777839674 | 33.33° C | 20% | 1011.6 hPa | 0 mm | - | 742 W/m² | - |
| 1777839372 | 33.33° C | 21% | 1011.7 hPa | 0 mm | - | 748 W/m² | - |
| 1777839069 | 32.78° C | 21% | 1011.8 hPa | 0 mm | - | 753 W/m² | - |
| 1777838765 | 33.33° C | 20% | 1011.9 hPa | 0 mm | - | 755 W/m² | - |
| 1777838462 | 33.33° C | 20% | 1011.9 hPa | 0 mm | - | 758 W/m² | - |
| 1777838154 | 32.78° C | 21% | 1011.7 hPa | 0 mm | - | 764 W/m² | - |
| 1777837851 | 32.78° C | 22% | 1011.8 hPa | 0 mm | - | 761 W/m² | - |
| 1777837548 | 32.78° C | 23% | 1012.1 hPa | 0 mm | - | 770 W/m² | - |
| 1777837248 | 32.78° C | 22% | 1012 hPa | 0 mm | - | 776 W/m² | - |
| 1777836944 | 32.78° C | 26% | 1012.2 hPa | 0 mm | - | 782 W/m² | - |
| 1777836639 | 32.22° C | 27% | 1012.3 hPa | 0 mm | - | 759 W/m² | - |
| 1777836335 | 32.22° C | 25% | 1012.4 hPa | 0 mm | - | 811 W/m² | - |
| 1777836031 | 32.22° C | 24% | 1012.6 hPa | 0 mm | - | 664 W/m² | - |
| 1777835728 | 31.67° C | 25% | 1012.7 hPa | 0 mm | - | 449 W/m² | - |
| 1777835425 | 31.67° C | 26% | 1012.6 hPa | 0 mm | - | 619 W/m² | - |
| 1777835122 | 31.67° C | 26% | 1012.5 hPa | 0 mm | - | 569 W/m² | - |
| 1777834819 | 31.67° C | 27% | 1012.6 hPa | 0 mm | - | 315 W/m² | - |
| 1777834515 | 31.67° C | 24% | 1012.6 hPa | 0 mm | - | 618 W/m² | - |
| 1777834215 | 31.67° C | 24% | 1012.9 hPa | 0 mm | - | 445 W/m² | - |
| 1777833912 | 31.11° C | 26% | 1013.1 hPa | 0 mm | - | 421 W/m² | - |
| 1777833608 | 31.11° C | 25% | 1013.2 hPa | 0 mm | - | 426 W/m² | - |
* Rain latest hour (hover to see other rain measurements)
** Current wind speed in m/s (hover to see current wind gust speed)